Regional Weather Roundup
Issued by NWS Kansas City/Pleasant Hill, MO

Home | Current Version | Previous Version | Graphics & Text | Print | Product List | Glossary Off
Versions: 1 2 3 4 5 6 7 8 9 10 11 12 13 14 15 16 17 18 19 20 21 22 23 24 25 26 27 28 29 30 31 32 33 34 35 36 37 38 39 40 41 42 43 44 45 46 47 48 49 50

339
ASUS43 KEAX 251910
RWREAX

WEATHER ROUNDUP FOR EASTERN KANSAS AND NORTHWEST MISSOURI
NATIONAL WEATHER SERVICE KANSAS CITY/PLEASANT HILL MO
100 PM CST SUN FEB 25 2018

KSZ040-057-103>105-MOZ028-029-037-043-252000-
...KANSAS CITY METROPOLITAN AREA...

CITY           SKY/WX    TMP DP  RH WIND       PRES   REMARKS
K.C. INTL      MOSUNNY   47  25  42 SW9       30.05F
K.C. DOWNTOWN  SUNNY     50  23  34 SW10      30.06F
LEES SUMMIT    SUNNY     47  22  37 W13       30.06F
OLATHE - IXD   PTSUNNY   48  24  39 SW10      30.07F
OLATHE - OJC   PTSUNNY   46  21  37 SW7       30.06F
LAWRENCE       MOSUNNY   50  24  36 SW7       30.06F

$$

MOZ001>008-011>017-020>025-030>033-038>040-044>046-053-054-252000-
...NORTHERN AND CENTRAL MISSOURI...

CITY           SKY/WX    TMP DP  RH WIND       PRES   REMARKS
ST. JOSEPH     CLOUDY    45  26  47 SW13      30.06F
MOSBY          CLEAR     46  19  34 W10       30.06F
WARRENSBURG    SUNNY     46  27  46 SW8       30.09F
WHITEMAN AFB   SUNNY     48  21  34 NW8       30.05F
CLINTON        SUNNY     46  27  46 SW7       30.10S
SEDALIA        SUNNY     47  26  44 W9        30.09F
WARSAW         NOT AVBL
CHILLICOTHE      N/A     47  25  42 VRB7G17   30.06F
KIRKSVILLE     SUNNY     46  27  47 SW15      30.04F

$$

MOZ041-047>049-056>058-063>065-088>090-097-252000-
...EASTERN AND SOUTHERN MISSOURI...

CITY           SKY/WX    TMP DP  RH WIND       PRES   REMARKS
ST. LOUIS INTL MOSUNNY   49  23  36 W8        30.09F
SPIRIT OF STL  MOSUNNY   48  23  37 W8        30.09F
COLUMBIA       SUNNY     47  23  38 SW7       30.08F
JEFFERSON CITY SUNNY     47  23  38 SW6       30.10F
ROLLA          SUNNY     46  25  43 S6        30.09F
OSAGE BEACH    SUNNY     49  27  42 VRB7      30.11S
SPRINGFIELD    SUNNY     50  29  44 VRB3      30.09F
BRANSON        MOSUNNY   50  28  43 SE6       30.10F
JOPLIN         SUNNY     50  31  48 VRB5      30.08F
WEST PLAINS    MOSUNNY   49  30  48 SE5       30.10F

$$

IAZ060-094-KSZ022-034>040-054-083-096-NEZ052-066-093-252000-
...KANSAS...SOUTHEAST NEBRASKA AND IOWA...

CITY           SKY/WX    TMP DP  RH WIND       PRES   REMARKS
TOPEKA         SUNNY     50  19  29 S10       30.05F
MANHATTAN      MOSUNNY   50  22  33 SW8       30.04F
EMPORIA        CLOUDY    48  22  35 SW8       30.04F
CHANUTE        SUNNY     49  32  52 S10       30.07F
WICHITA        MOSUNNY   49  31  49 SE8       30.02F
OMAHA          PTSUNNY   39  21  48 SW7       30.00F WCI  34
LINCOLN        SUNNY     42  27  55 SW12      30.01S
FALLS CITY     MOSUNNY   45  23  42 SW14G25   30.03F
LAMONI         SUNNY     44  25  47 SW22      30.00F
DES MOINES     MOSUNNY   40  26  57 W17       29.97S WCI  31

$$





USA.gov is the U.S. government's official web portal to all federal, state and local government web resources and services.